Погода в Псемене

Россия / Карачаево-Черкесская Республика     43°58′52″N   40°58′14″E
темп.,
°C
ветер,
м/с
пор.,
м/с
влажн.,
%
обл.,
%
осадки,
мм/ч
давл.,
гПа
погр.,
м
8 августа, пн
пн800:00+13ю219610 0.0 101215
03:00+12ю22935 0.0 101230
06:00+13ю22890 0.0 101336
09:00+20всв22648 0.0 1013832
12:00+23в344986 0.4 10131741
15:00+24в454194 0.6 10122295
18:00+21вюв375556 0.0 1014559
21:00+14ююз22770 0.0 101627
9 августа, вт
вт900:00+12ю33810 0.0 101646
03:00+12ю22760 0.0 101537
06:00+12ю22790 0.0 101641
09:00+20всв22560 0.0 1014711
12:00+24в35400 0.0 10131597
15:00+25в45350 0.0 10111961
18:00+22всв26570 0.0 1012335
21:00+15ю22770 0.0 101237
10 августа, ср
ср1000:00+14ю22760 0.0 101227
03:00+14ююв22750 0.0 101135
06:00+15ю22760 0.0 101030
09:00+22в22550 0.0 1008525
12:00+27всв21420 0.0 10071214
15:00+29всв223357 0.0 10061702
18:00+25ююв226210 0.0 100636
21:00+18ююз22729 0.0 100731
11 августа, чт
чт1100:00+17ююз22685 0.0 100726
03:00+18ююз217394 0.3 100717
06:00+18ю3379100 0.1 100851
09:00+23св116282 0.4 1008425
12:00+27св32455 0.0 10081535
15:00+28всв234221 0.3 10082060
18:00+23зсз227315 1.0 101051
21:00+17ю22860 1.3 101121
12 августа, пт
пт1200:00+15ююз22930 1.2 101225
03:00+15ю32900 1.3 101236
06:00+15ююз228717 0.1 101327
09:00+24ссв105593 0.1 1012496
12:00+28ссв224610 0.0 10111588
15:00+29всв244115 0.1 10102100
18:00+24з126595 0.3 101119
21:00+19зюз11871 1.4 101315